Blythe, CA

10:06 AM PDT on April 27, 2017 (GMT -0700)
Blythe

Weather History for KBLH - January, 2014

Change the Weather History Date:

Wednesday, January 29, 2014

  Actual Average Record
Temperature  
Mean Temperature 62 °F -  
Max Temperature 77 °F 67 °F 86 °F (2004)
Min Temperature 48 °F 43 °F 30 °F (1975)
Degree Days  
Heating Degree Days 2    
Growing Degree Days 12 (Base 50)    
Moisture  
Dew Point 25 °F    
Average Humidity 26    
Maximum Humidity 36    
Minimum Humidity 14    
Precipitation  
Precipitation 0.00 in - - ()
Sea Level Pressure  
Sea Level Pressure 29.97 in    
Wind  
Wind Speed 3 mph (SSW)    
Max Wind Speed 7 mph    
Max Gust Speed -    
Visibility 10 miles    
Events      
Averages and records for this station are not official NWS values.
T = Trace of Precipitation, MM = Missing Value Source: NWS Daily Summary

Daily Weather History Graph

Daily Weather History Graph

Search for Another Location

Airport or City:

Trip Planner

Search our weather history database for the weather conditions in past years. The results will help you decide how hot, cold, wet, or windy it might be!

Date:

Astronomy

Jan. 29, 2014 Rise Set
Actual Time 6:37 AM PST 5:07 PM PST
Civil Twilight 6:10 AM PST 5:33 PM PST
Nautical Twilight 5:40 AM PST 6:03 PM PST
Astronomical Twilight 5:11 AM PST 6:32 PM PST
Moon 5:17 AM PST (1/29) 4:11 PM PST (1/29)
Length of Visible Light 11h 22m
Length of Day
10h 30m
Waning Crescent, 2% of the Moon is Illuminated
Jan 29
Waning Crescent
Jan 30
New
Feb 6
First Quarter
Feb 14
Full
Feb 22
Last Quarter

Hourly Weather History & Observations

Time (PST) Temp. Dew Point Humidity Pressure Visibility Wind Dir Wind Speed Gust Speed Precip Events Conditions
12:52 AM 55.0 °F 21.0 °F 27% 30.05 in 10.0 mi WSW 5.8 mph - N/A   Clear
1:52 AM 53.1 °F 21.0 °F 29% 30.04 in 10.0 mi NE 3.5 mph - N/A   Clear
2:52 AM 54.0 °F 21.0 °F 28% 30.03 in 10.0 mi Calm Calm - N/A   Clear
3:52 AM 48.9 °F 19.9 °F 32% 30.03 in 10.0 mi North 3.5 mph - N/A   Clear
4:52 AM 48.9 °F 19.9 °F 32% 30.05 in 10.0 mi WNW 4.6 mph - N/A   Clear
5:52 AM 48.9 °F 19.9 °F 32% 30.05 in 10.0 mi North 3.5 mph - N/A   Clear
6:52 AM 48.9 °F 23.0 °F 36% 30.06 in 10.0 mi Calm Calm - N/A   Clear
7:52 AM 53.1 °F 21.0 °F 29% 30.07 in 10.0 mi SW 6.9 mph - N/A   Clear
8:52 AM 61.0 °F 19.9 °F 21% 30.09 in 10.0 mi West 4.6 mph - N/A   Clear
9:52 AM 69.1 °F 19.9 °F 15% 30.08 in 10.0 mi Calm Calm - N/A   Unknown
10:52 AM 70.0 °F 21.0 °F 16% 30.06 in 10.0 mi ESE 3.5 mph - N/A   Clear
11:52 AM 71.1 °F 26.1 °F 19% 30.01 in 10.0 mi Calm Calm - N/A   Clear
12:52 PM 73.0 °F 27.0 °F 18% 29.97 in 10.0 mi Variable 4.6 mph - N/A   Clear
1:52 PM 75.9 °F 25.0 °F 15% 29.94 in 10.0 mi Calm Calm - N/A   Clear
2:52 PM 77.0 °F 24.1 °F 14% 29.92 in 10.0 mi SSE 3.5 mph - N/A   Clear
3:52 PM 75.9 °F 28.0 °F 17% 29.90 in 10.0 mi South 6.9 mph - N/A   Clear
4:52 PM 73.9 °F 30.9 °F 21% 29.88 in 10.0 mi ESE 4.6 mph - N/A   Clear
5:52 PM 69.1 °F 32.0 °F 25% 29.88 in 10.0 mi SE 3.5 mph - N/A   Clear
6:52 PM 64.9 °F 30.0 °F 27% 29.89 in 10.0 mi WNW 4.6 mph - N/A   Clear
7:52 PM 61.0 °F 28.9 °F 30% 29.88 in 10.0 mi Calm Calm - N/A   Clear
8:52 PM 61.0 °F 30.0 °F 31% 29.89 in 10.0 mi Calm Calm - N/A   Unknown
9:52 PM 60.1 °F 30.9 °F 33% 29.88 in 10.0 mi SSE 6.9 mph - N/A   Clear
10:52 PM 57.9 °F 30.9 °F 36% 29.87 in 10.0 mi Calm Calm - N/A   Clear
11:52 PM 57.0 °F 30.0 °F 36% 29.85 in 10.0 mi Calm Calm - N/A   Clear